Regional Weather Roundup
Issued by NWS

Home | Current Version | Previous Version | Graphics & Text | Print | Product List | Glossary On
Versions: 1 2 3 4 5 6 7 8 9 10 11 12 13 14 15 16 17 18 19 20 21 22 23 24 25 26 27 28 29 30 31 32 33 34 35 36 37 38 39 40 41 42 43 44 45 46 47 48 49 50
000
ASUS45 KTFX 250304
RWRMT
MONTANA HOURLY WEATHER ROUNDUP
NATIONAL WEATHER SERVICE GREAT FALLS MT
904 PM MDT THU JUL 24 2014

NOTE: "FAIR" INDICATES FEW OR NO CLOUDS BELOW 12000 FEET WITH NO
SIGNIFICANT WEATHER AND/OR OBSTRUCTIONS TO VISIBILITY.

* THESE STATIONS ARE NOT UNDER NWS QUALITY CONTROL. THEY DO NOT
   REPORT WEATHER SUCH AS PRECIPITATION OR FOG.

MTZ001>007-043-250400-
WEST OF THE DIVIDE
CITY           SKY/WX    TMP DP  RH WIND       PRES   REMARKS
KALISPELL      MOCLDY    59  39  48 SW10      30.08F
MISSOULA       FAIR      64  36  35 NW12      30.11R
BUTTE          CLEAR     64  28  26 NW12      30.10R
MULLAN PASS    CLOUDY    45  37  74 SW6       30.18S
* ESSEX        N/A       55  37  51 SW5G14     N/A
* LINCOLN      N/A       61  35  38 SW7G20     N/A
* LOOKOUT PASS N/A       52  40  64 SE2        N/A
* POLSON       N/A       57  39  51 SE1        N/A
* RONAN APT    PTCLDY    61  43  52 N/A        N/A
* SEELEY LAKE  N/A       61  35  38 W5G18      N/A
* THOMP F APT  CLEAR     68  13  12 S12G21     N/A
$$

MTZ008-052>055-250400-
SOUTHWEST MONTANA
CITY           SKY/WX    TMP DP  RH WIND       PRES   REMARKS
BOZEMAN        CLEAR     70  37  30 CALM      29.99R
DILLON         CLEAR     66  28  24 NW3       30.03R
W YELLOWSTONE  CLEAR     63  30  29 S12G18    30.15R
* THREE FORKS  CLEAR     75  36  24 N9         N/A
* BOULDER HILL N/A       61  26  26 N/A        N/A
* MONIDA PASS  N/A       65  21  18 SE11       N/A
* RAYNOLDS PAS N/A       65  44  47 SE16G25    N/A
* WHITEHALL    N/A       74  25  16 NW14G24    N/A
* WISE RIVER   N/A       65  27  24 NW12G20    N/A
$$

MTZ009>010-012-014-046-048-049-054-250400-
EAST SLOPES AND CENTRAL MONTANA
CITY           SKY/WX    TMP DP  RH WIND       PRES   REMARKS
CUT BANK       CLEAR     55  36  49 W32G44    29.91F
GREAT FALLS    CLEAR     63  32  31 W21G29    29.95R
HELENA         CLEAR     66  30  26 NW9       30.02R
MALMSTROM AFB  CLEAR     64  32  30 W21G29    29.97R
* CONRAD       CLEAR     63  37  38 W11G18     N/A
* DEARBORN     N/A       67  33  28 S22G27     N/A
* EAST GLACIER N/A       52  35  52 E16G25     N/A
* MONARCH      N/A       60  20  21 W16        N/A
* PENDROY      N/A       58  32  37 W11G20     N/A
* SAINT MARY   N/A       49  38  66 S14G40     N/A
* SWEET GRASS  N/A       59  33  38 W20G29     N/A
$$

MTZ011-013-016-021-035-040-045-047-050-051-250400-
NORTH CENTRAL MONTANA
CITY           SKY/WX    TMP DP  RH WIND       PRES   REMARKS
HAVRE          CLEAR     64  34  33 W25G32    29.84S
LEWISTOWN      CLEAR     64  28  26 NW10      29.95R
* CHESTER      N/A       65  31  28 W20G36     N/A
* DENTON       N/A       68  26  21 W20G27     N/A
* JUDITH GAP   N/A       67  32  27 N9G15      N/A
* LOMA         N/A       68  33  27 W16G24     N/A
$$

MTZ017>020-022>027-061-062-250400-
NORTHEAST MONTANA
CITY           SKY/WX    TMP DP  RH WIND       PRES   REMARKS
GLASGOW        CLEAR     68  37  32 NW7       29.80R
GLENDIVE       MOCLDY    66  54  65 N23G35    29.82R
JORDAN         CLEAR     72  37  28 NW16      29.80R
SIDNEY         CLOUDY   N/A N/A N/A N24G36    29.77R
WOLF POINT     PTCLDY    66  54  65 NE6       29.83R
* BEAVER HILL  N/A       64  56  75 NW26G37    N/A
* CIRCLE       N/A       70  45  41 NW5G11     N/A
* LINDSAY DVD  N/A       63  54  73 N19G25     N/A
* NAVAJO       N/A       58  53  84 N9         N/A
$$

MTZ028>042-056>058-250400-
SOUTHCENTRAL AND SOUTHEAST MONTANA
CITY           SKY/WX    TMP DP  RH WIND       PRES   REMARKS
BAKER          PTCLDY    68  61  78 N31G46    29.80R
BILLINGS       CLEAR     77  37  24 N13       29.88R
LIVINGSTON     CLEAR     72  32  23 W9        29.97R
MILES CITY     CLEAR     73  48  41 N13       29.83R
* LAUREL APT   CLEAR     77  39  26 NW8        N/A
* ROUNDUP APT  CLEAR     73  28  19 NW13       N/A
* HYSHAM       N/A       73  39  29 NW5G14     N/A
* LAME DEER    N/A       70  46  42 N17G28     N/A
* REED POINT   N/A       76  37  24 W11G17     N/A
* ROSCOE HILL  N/A       70  36  29 VRB6       N/A
$$

REGIONAL REPORTS...DAKOTAS
CITY           SKY/WX    TMP DP  RH WIND       PRES   REMARKS
WILLISTON      TSTM      66  63  90 NW20G29   29.77R
DICKINSON      CLOUDY    73  66  79 N9        29.72R
CROSBY         TSTM      64  64 100 NW6       29.75R
TIOGA          TSTM      72  72 100 E12       29.75R
WATFORD CITY   LGT RAIN  73  70  90 N5        29.72R
BISMARCK       CLOUDY    73  64  74 S17       29.72R
GRAND FORKS    MOCLDY    70  61  73 SE9       29.78R
FARGO          MOCLDY    72  63  73 SE17G30   29.71F
BUFFALO SD     CLOUDY    72  59  64 E12       29.63F
RAPID CITY     CLEAR     81  59  47 CALM      29.67F HI  81
$$

REGIONAL REPORTS...WYOMING/IDAHO/WASHINGTON
CITY           SKY/WX    TMP DP  RH WIND       PRES   REMARKS
GILLETTE       CLEAR     79  41  26 NW10      29.82R
SHERIDAN       CLEAR     75  50  42 N10       29.89R
YELLOWSTONE LA CLEAR     57  23  27 VRB6      30.26R
SALMON         CLEAR     68  30  24 N13       29.97R
MULLAN PASS    CLOUDY    45  37  74 SW6       30.18S
SAND POINT     CLOUDY    55  54  96 CALM      30.07F
SPOKANE        MOCLDY    66  43  43 SW12      30.07S

$$




USA.gov is the U.S. government's official web portal to all federal, state and local government web resources and services.